Flag for Italy Weather past 2 weeks in Messina, Italy

Now
86 °F

Sunny.


Feels Like: 91 °F
Forecast: 80 / 89 °F
Wind: 14 mph from North

Location: Reggio Calabria

Current Time: Aug 3, 2015 at 9:25:15 AM

Latest Report: Aug 3, 2015 at 8:50 AM


Visibility: 10 mi

Pressure: 29.89 "Hg

Humidity: 59%

Dew point: 70 °F

Location of MessinaLocation

Historic Weather in Messina — Graph

°F

Messina temperature yesterday

Maximum temperature yesterday: 88 °F (at 11:50 AM)
Minimum temperature yesterday: 82 °F (at 6:50 AM)
Average temperature yesterday: 85 °F

Past Weeks' High & Low Weather Summary

 TemperatureHumidityPressure
High102 °F (Jul 29, 6:50 PM)89% (Aug 1, 9:50 PM)30.01 "Hg (Aug 1, 9:50 PM)
Low75 °F (Jul 25, 6:00 AM)23% (Jul 31, 7:50 PM)29.77 "Hg (Jul 23, 2:50 PM)
Average86 °F56%29.85 "Hg
* Reported Jul 19 7:50 AM — Aug 3 7:50 AM, Messina, Weather by CustomWeather, © 2015

Note: Actual official high and low records may vary slightly from our data, if they occured in-between our weather recording intervals... More about our weather records

Advertising

Messina weather history for previous 24 hours

 ConditionsComfort  
Time TempWeatherWind HumidityBarometerVisibility
7:50 AM
Mon, Aug 3
84 °FPassing clouds.12 mph58%29.89 "HgN/A
6:50 AM84 °FPassing clouds.8 mph51%29.89 "HgN/A
6:00 AM84 °FPassing clouds.7 mph45%29.89 "HgN/A
11:50 PM
Sun, Aug 2
84 °FClear.8 mph62%29.98 "Hg10 mi
10:50 PM84 °FClear.10 mph62%29.98 "Hg10 mi
9:50 PM82 °FClear.9 mph74%29.98 "Hg10 mi
8:50 PM82 °FSunny.12 mph84%29.95 "Hg10 mi
6:50 PM84 °FSunny.8 mph79%29.95 "Hg10 mi
5:50 PM88 °FSunny.13 mph70%29.98 "Hg10 mi
4:50 PM88 °FPassing clouds.20 mph70%29.98 "HgN/A
3:50 PM86 °FScattered clouds.22 mph75%29.98 "HgN/A
2:50 PM88 °FSunny.22 mph70%29.98 "Hg10 mi
1:50 PM88 °FSunny.22 mph70%29.98 "Hg10 mi
12:50 PM86 °FSunny.20 mph75%29.98 "Hg10 mi
11:50 AM88 °FSunny.13 mph70%30.01 "Hg10 mi
10:50 AM86 °FSunny.8 mph70%30.01 "Hg10 mi
9:50 AM86 °FSunny.8 mph70%29.98 "Hg10 mi
Weather by CustomWeather, © 2015

See weather overviewHow to use our weather pages